Location: ScottNC Observatory
(36.0892°N, 80.4832°W)
Time: 10:04:26
(UTC-04:00)

OTV 5 (USA 277) - Pass Details

Date: 21 February 2019
Orbit: 315 x 320 km, 54.5° (Epoch: 14 March)

Event Time Altitude Azimuth Distance (km) Brightness Sun altitude
Rises 18:51:58 0° 180° (S) 2,042 ? -9.4°
Reaches altitude 10° 18:55:12 10° 137° (SE) 1,219 ? -10.0°
Enters shadow 18:55:45 11° 125° (SE) 1,192 ? -10.1°
